Home   Weather   Youngstown   Past weeks

Flag for USA Past Weather in Youngstown, Ohio, USA — Yesterday and Last 2 Weeks

Now
35 °F

Overcast.


Feels Like: 32 °F
Forecast: 28 / 41 °F
Wind: 3 mph from West

Location: Youngstown-Warren Regional Airport

Current Time: Dec 4, 2016 at 3:16:20 am

Latest Report: Dec 4, 2016 at 1:51 am


Visibility: 10 mi

Pressure: 30.29 "Hg

Humidity: 72%

Dew Point: 27 °F

Location of YoungstownLocation

Past Weather in Youngstown — Graph

°F

Youngstown Temperature Yesterday

Maximum temperature yesterday: 38 °F (at 12:51 pm)
Minimum temperature yesterday: 35 °F (at 2:51 am)
Average temperature yesterday: 36 °F

High & Low Weather Summary for the Past Weeks

 TemperatureHumidityPressure
High60 °F (Nov 29, 2:51 pm)97% (Nov 24, 9:51 am)30.37 "Hg (Nov 24, 9:51 am)
Low23 °F (Nov 23, 6:51 am)41% (Nov 28, 6:51 pm)29.50 "Hg (Nov 30, 7:51 pm)
Average39 °F76%30.05 "Hg
* Reported Nov 19 1:51 am — Dec 4 1:51 am, Youngstown, Weather by CustomWeather, © 2016

Note: Actual official high and low records may vary slightly from our data, if they occured in-between our weather recording intervals... More about our weather records

Advertising

Youngstown Weather History for the Previous 24 Hours

Scroll right to see more
 ConditionsComfort  
Time TempWeatherWind HumidityBarometerVisibility
1:51 am
Sun, Dec 4
35 °FOvercast.3 mph72%30.29 "Hg10 mi
12:51 am35 °FOvercast.5 mph72%30.29 "Hg10 mi
11:51 pm
Sat, Dec 3
35 °FOvercast.6 mph72%30.29 "Hg10 mi
10:51 pm36 °FOvercast.8 mph70%30.30 "Hg10 mi
9:51 pm36 °FOvercast.7 mph73%30.30 "Hg10 mi
8:51 pm36 °FMostly cloudy.8 mph75%30.30 "Hg10 mi
7:51 pm36 °FOvercast.5 mph79%30.29 "Hg10 mi
6:51 pm36 °FMostly cloudy.7 mph79%30.30 "Hg10 mi
5:51 pm36 °FMostly cloudy.6 mph79%30.30 "Hg10 mi
4:51 pm36 °FMostly cloudy.9 mph79%30.31 "Hg10 mi
3:51 pm37 °FMostly cloudy.8 mph79%30.30 "Hg10 mi
2:51 pm38 °FOvercast.8 mph76%30.29 "Hg10 mi
1:51 pm38 °FOvercast.12 mph73%30.29 "Hg10 mi
12:51 pm38 °FOvercast.7 mph76%30.25 "Hg10 mi
11:51 am37 °FOvercast.10 mph76%30.28 "Hg10 mi
10:51 am37 °FOvercast.10 mph76%30.32 "Hg10 mi
9:51 am36 °FOvercast.10 mph79%30.31 "Hg9 mi
8:51 am36 °FLight snow. Overcast.10 mph79%30.29 "Hg9 mi
7:51 am36 °FOvercast.9 mph79%30.28 "Hg10 mi
6:51 am35 °FOvercast.8 mph78%30.26 "Hg10 mi
5:51 am35 °FOvercast.8 mph78%30.24 "Hg10 mi
4:51 am35 °FOvercast.9 mph78%30.24 "Hg10 mi
3:51 am35 °FMostly cloudy.9 mph78%30.23 "Hg10 mi
Weather by CustomWeather, © 2016

See weather overviewHow to use our weather pages